Location: Clanezzo
(45.7500°N, 9.6000°E)
Time: 12:46:06
(UTC+00:00)

CRYOSAT 2 - Pass Details

Date: 12 May 2021
Orbit: 714 x 725 km, 92.0° (Epoch: 19 June)

Event Time Altitude Azimuth Distance (km) Brightness Sun altitude
Exits shadow 20:02:58 12° 164° (SSE) 2,047 6.2 -12.2°
Maximum altitude 20:07:25 70° 82° (E) 771 4.4 -12.8°
Drops below altitude 10° 20:12:18 10° 360° (N) 2,223 7.6 -13.4°
Sets 20:14:37 0° 358° (N) 3,147 8.5 -13.6°
